N4XWC Weather Reports


time (UTC)temp
C
wind
direction
speed
KPH
gust
KPH
rain 1hr
cm
rain 24hr
cm
rain mn
cm
humidity
%
barometer
mb
20260902215223 32 89 4.8 4.8 0.00 0.00 0.00 61 1015.2
20260902215156 32 41 0.0 6.4 0.00 0.00 0.00 61 1015.2
20260902214722 32 51 4.8 4.8 0.00 0.00 0.00 59 1015.2
20260902214222 32 75 8.0 8.0 0.00 0.00 0.00 60 1015.2
20260902214157 33 55 0.0 4.8 0.00 0.00 0.00 60 1015.2
20260902213722 33 69 1.6 6.4 0.00 0.00 0.00 58 1015.2
20260902213223 33 107 4.8 6.4 0.00 0.00 0.00 58 1015.2
20260902213156 33 119 1.6 3.2 0.00 0.00 0.00 58 1015.2
20260902212724 33 85 1.6 4.8 0.00 0.00 0.00 57 1015.3
20260902212222 33 40 4.8 8.0 0.00 0.00 0.00 58 1015.3
20260902212158 33 49 3.2 6.4 0.00 0.00 0.00 58 1015.3
20260902211723 33 164 3.2 6.4 0.00 0.00 0.00 60 1015.3
20260902211223 33 157 1.6 4.8 0.00 0.00 0.00 57 1015.4
20260902211155 33 185 4.8 4.8 0.00 0.00 0.00 57 1015.4
20260902210722 33 40 3.2 8.0 0.00 0.00 0.00 56 1015.4
20260902210223 33 83 1.6 3.2 0.00 0.00 0.00 60 1015.4
20260902210155 33 90 0.0 1.6 0.00 0.00 0.00 60 1015.4
20260902205723 33 75 1.6 3.2 0.00 0.00 0.00 58 1015.2
20260902205222 33 30 4.8 4.8 0.00 0.00 0.00 58 1015.2
20260902205157 33 8 3.2 4.8 0.00 0.00 0.00 58 1015.2
20260902204723 33 169 1.6 3.2 0.00 0.00 0.00 57 1015.2
20260902204223 34 52 1.6 1.6 0.00 0.00 0.00 56 1015.6
20260902204156 34 52 1.6 3.2 0.00 0.00 0.00 56 1015.6
20260902203724 34 71 1.6 1.6 0.00 0.00 0.00 54 1015.6
20260902203223 33 58 3.2 4.8 0.00 0.00 0.00 52 1015.6
20260902203155 33 103 4.8 4.8 0.00 0.00 0.00 52 1015.6
20260902202723 33 144 1.6 6.4 0.00 0.00 0.00 54 1015.6
20260902202224 33 45 4.8 4.8 0.00 0.00 0.00 59 1015.6
20260902202157 34 171 0.0 8.0 0.00 0.00 0.00 56 1015.6
20260902201722 34 157 0.0 1.6 0.00 0.00 0.00 55 1015.6
20260902201223 34 151 1.6 4.8 0.00 0.00 0.00 58 1015.9
20260902201156 34 127 4.8 8.0 0.00 0.00 0.00 58 1015.9
20260902200724 34 120 4.8 4.8 0.00 0.00 0.00 56 1015.9
20260902200240 34 82 4.8 4.8 0.00 0.00 0.00 54 1015.9
20260902200222 34 141 3.2 4.8 0.00 0.00 0.00 55 1015.9
20260902200157 34 82 4.8 4.8 0.00 0.00 0.00 54 1015.9
20260902195723 34 133 4.8 4.8 0.00 0.00 0.00 54 1016.1
20260902195224 34 126 3.2 4.8 0.00 0.00 0.00 52 1016.1
20260902195157 34 48 1.6 1.6 0.00 0.00 0.00 52 1016.1
20260902194722 34 104 4.8 6.4 0.00 0.00 0.00 52 1016.1
20260902194223 34 161 3.2 4.8 0.00 0.00 0.00 53 1016.5
20260902194156 34 42 4.8 8.0 0.00 0.00 0.00 53 1016.5
20260902193724 34 52 1.6 4.8 0.00 0.00 0.00 53 1016.5
20260902193223 33 45 1.6 8.0 0.00 0.00 0.00 53 1016.5
20260902193156 33 59 4.8 4.8 0.00 0.00 0.00 53 1016.5
20260902192722 33 104 3.2 3.2 0.00 0.00 0.00 59 1016.7
20260902192223 33 73 3.2 8.0 0.00 0.00 0.00 56 1016.7
20260902192155 33 109 4.8 8.0 0.00 0.00 0.00 56 1016.7
20260902191723 33 99 4.8 4.8 0.00 0.00 0.00 56 1016.7
20260902191222 33 0 0.0 4.8 0.00 0.00 0.00 58 1016.7
20260902191157 33 59 4.8 4.8 0.00 0.00 0.00 58 1016.7
20260902190722 33 148 1.6 1.6 0.00 0.00 0.00 59 1016.7
20260902190223 33 61 0.0 3.2 0.00 0.00 0.00 60 1016.7
20260902190156 33 41 3.2 3.2 0.00 0.00 0.00 58 1016.7
20260902185723 33 178 0.0 1.6 0.00 0.00 0.00 61 1017.0
20260902185223 33 78 3.2 3.2 0.00 0.00 0.00 58 1017.0
20260902185158 33 13 0.0 3.2 0.00 0.00 0.00 59 1017.0
20260902184722 33 30 0.0 1.6 0.00 0.00 0.00 62 1017.0
20260902184223 33 80 1.6 4.8 0.00 0.00 0.00 59 1017.1
20260902184156 33 189 4.8 4.8 0.00 0.00 0.00 59 1017.1
20260902183723 33 234 0.0 3.2 0.00 0.00 0.00 58 1017.1
20260902183222 33 216 0.0 6.4 0.00 0.00 0.00 57 1017.1
20260902183157 33 124 0.0 1.6 0.00 0.00 0.00 57 1017.1
20260902182723 33 93 6.4 9.7 0.00 0.00 0.00 58 1017.2
20260902182223 33 82 4.8 8.0 0.00 0.00 0.00 57 1017.2
20260902182156 33 90 6.4 8.0 0.00 0.00 0.00 57 1017.2
20260902181722 33 75 3.2 6.4 0.00 0.00 0.00 58 1017.2
20260902181223 33 65 4.8 4.8 0.00 0.00 0.00 56 1017.3
20260902181156 33 78 1.6 3.2 0.00 0.00 0.00 56 1017.3
20260902180723 33 99 1.6 3.2 0.00 0.00 0.00 55 1017.3
20260902180222 33 158 3.2 6.4 0.00 0.00 0.00 55 1017.3
20260902180157 33 66 3.2 8.0 0.00 0.00 0.00 55 1017.3
20260902175723 33 51 3.2 4.8 0.00 0.00 0.00 57 1017.6
20260902175223 33 4 4.8 6.4 0.00 0.00 0.00 58 1017.6
20260902175159 33 10 4.8 4.8 0.00 0.00 0.00 58 1017.6
20260902174722 33 13 3.2 6.4 0.00 0.00 0.00 57 1017.6
20260902174223 33 147 3.2 6.4 0.00 0.00 0.00 55 1017.8
20260902174158 33 110 4.8 8.0 0.00 0.00 0.00 57 1017.8
20260902173723 33 75 8.0 8.0 0.00 0.00 0.00 56 1017.8
20260902173222 33 151 1.6 3.2 0.00 0.00 0.00 56 1017.8
20260902173157 33 88 3.2 3.2 0.00 0.00 0.00 54 1017.8
20260902172723 33 88 4.8 4.8 0.00 0.00 0.00 58 1018.1
20260902172223 33 37 1.6 1.6 0.00 0.00 0.00 59 1018.1
20260902172156 33 14 1.6 1.6 0.00 0.00 0.00 57 1018.1
20260902171724 32 80 1.6 3.2 0.00 0.00 0.00 59 1018.1
20260902171223 32 0 3.2 3.2 0.00 0.00 0.00 62 1018.2
20260902171155 32 354 1.6 4.8 0.00 0.00 0.00 60 1018.2
20260902170722 33 30 1.6 1.6 0.00 0.00 0.00 59 1018.2
20260902170223 33 350 4.8 14.5 0.00 0.00 0.00 61 1018.2
20260902170156 33 16 4.8 6.4 0.00 0.00 0.00 61 1018.2
20260902165724 33 27 8.0 8.0 0.00 0.00 0.00 61 1018.3
20260902165222 33 11 4.8 4.8 0.00 0.00 0.00 63 1018.3
20260902165157 33 11 4.8 6.4 0.00 0.00 0.00 63 1018.3
20260902164723 33 52 1.6 3.2 0.00 0.00 0.00 63 1018.3
20260902164236 33 329 1.6 3.2 0.00 0.00 0.00 62 1018.3
20260902164223 33 6 1.6 3.2 0.00 0.00 0.00 60 1018.3
20260902164156 33 329 1.6 3.2 0.00 0.00 0.00 62 1018.3
20260902163724 33 230 0.0 3.2 0.00 0.00 0.00 64 1018.3
20260902163224 32 284 1.6 4.8 0.00 0.00 0.00 61 1018.3
20260902163156 33 275 4.8 4.8 0.00 0.00 0.00 64 1018.3
20260902162722 33 316 1.6 4.8 0.00 0.00 0.00 63 1018.6
20260902162223 33 116 0.0 0.0 0.00 0.00 0.00 59 1018.6
20260902162155 33 116 0.0 1.6 0.00 0.00 0.00 59 1018.6
20260902161724 33 31 0.0 1.6 0.00 0.00 0.00 57 1018.6
20260902161223 33 340 3.2 3.2 0.00 0.00 0.00 58 1018.7
20260902161156 33 343 1.6 3.2 0.00 0.00 0.00 60 1018.7
20260902160724 32 0 1.6 1.6 0.00 0.00 0.00 60 1018.7
20260902160222 32 186 0.0 3.2 0.00 0.00 0.00 61 1018.7
20260902160155 32 199 3.2 3.2 0.00 0.00 0.00 62 1018.7
20260902155723 32 330 1.6 1.6 0.00 0.00 0.00 62 1018.7
20260902155224 32 354 0.0 0.0 0.00 0.00 0.00 64 1018.7
20260902155156 32 354 0.0 1.6 0.00 0.00 0.00 64 1018.7
20260902154722 32 246 0.0 1.6 0.00 0.00 0.00 64 1018.7
20260902154222 32 301 4.8 4.8 0.00 0.00 0.00 65 1018.7
20260902154157 32 304 1.6 3.2 0.00 0.00 0.00 64 1018.7
20260902153723 32 313 3.2 3.2 0.00 0.00 0.00 65 1018.7
20260902153223 32 0 3.2 3.2 0.00 0.00 0.00 63 1018.7
20260902153156 32 55 1.6 1.6 0.00 0.00 0.00 63 1018.7
20260902152722 32 86 1.6 1.6 0.00 0.00 0.00 64 1018.8
20260902152223 32 79 1.6 3.2 0.00 0.00 0.00 64 1018.8
20260902152156 32 45 3.2 6.4 0.00 0.00 0.00 63 1018.8
20260902151723 32 0 0.0 3.2 0.00 0.00 0.00 64 1018.8
20260902151222 32 0 1.6 3.2 0.00 0.00 0.00 63 1018.6
20260902151157 32 0 1.6 4.8 0.00 0.00 0.00 63 1018.6
20260902150723 32 311 0.0 1.6 0.00 0.00 0.00 65 1018.6
20260902150224 31 353 0.0 3.2 0.00 0.00 0.00 65 1018.6
20260902150156 31 333 3.2 3.2 0.00 0.00 0.00 65 1018.6
20260902145723 31 357 1.6 1.6 0.00 0.00 0.00 65 1018.5
20260902145223 31 1 1.6 1.6 0.00 0.00 0.00 66 1018.5
20260902145155 31 3 0.0 1.6 0.00 0.00 0.00 65 1018.5
20260902144722 31 0 1.6 3.2 0.00 0.00 0.00 64 1018.5
20260902144222 31 0 3.2 3.2 0.00 0.00 0.00 66 1018.4
20260902144156 31 0 1.6 1.6 0.00 0.00 0.00 66 1018.4
20260902143722 31 4 3.2 3.2 0.00 0.00 0.00 69 1018.4
20260902143223 31 147 0.0 0.0 0.00 0.00 0.00 71 1018.4
20260902143200 31 147 0.0 0.0 0.00 0.00 0.00 71 1018.4
20260902142722 31 147 0.0 1.6 0.00 0.00 0.00 72 1018.4
20260902142222 31 109 0.0 1.6 0.00 0.00 0.00 74 1018.4
20260902142156 30 109 1.6 1.6 0.00 0.00 0.00 74 1018.4
20260902141723 30 109 0.0 1.6 0.00 0.00 0.00 74 1018.4
20260902141223 30 109 0.0 0.0 0.00 0.00 0.00 74 1018.5
20260902141157 30 109 0.0 0.0 0.00 0.00 0.00 74 1018.5
20260902140723 30 109 0.0 0.0 0.00 0.00 0.00 75 1018.5
20260902140222 30 109 0.0 1.6 0.00 0.00 0.00 75 1018.5
20260902140157 30 109 1.6 1.6 0.00 0.00 0.00 75 1018.5
20260902135723 29 109 3.2 3.2 0.00 0.00 0.00 76 1018.6
20260902135223 28 109 0.0 1.6 0.00 0.00 0.00 77 1018.6
20260902135157 28 109 1.6 1.6 0.00 0.00 0.00 78 1018.6
20260902134722 28 104 3.2 3.2 0.00 0.00 0.00 79 1018.6
20260902134223 28 114 0.0 0.0 0.00 0.00 0.00 80 1018.6
20260902134155 27 114 0.0 1.6 0.00 0.00 0.00 80 1018.6
20260902133722 27 114 1.6 1.6 0.00 0.00 0.00 81 1018.6
20260902133222 27 114 0.0 0.0 0.00 0.00 0.00 82 1018.6
20260902133157 27 114 0.0 0.0 0.00 0.00 0.00 82 1018.6
20260902132723 27 114 1.6 1.6 0.00 0.00 0.00 85 1018.5
20260902132223 26 114 0.0 0.0 0.00 0.00 0.00 86 1018.5
20260902132156 26 114 0.0 0.0 0.00 0.00 0.00 86 1018.5
20260902131722 26 114 0.0 0.0 0.00 0.00 0.00 86 1018.5
20260902131223 26 114 0.0 0.0 0.00 0.00 0.00 86 1018.6
20260902131155 26 114 0.0 0.0 0.00 0.00 0.00 86 1018.6
20260902130722 26 114 0.0 0.0 0.00 0.00 0.00 87 1018.6
20260902130223 25 114 0.0 0.0 0.00 0.00 0.00 88 1018.6
20260902130155 25 114 0.0 0.0 0.00 0.00 0.00 88 1018.6
20260902125724 25 114 0.0 0.0 0.00 0.00 0.00 88 1018.5
20260902125222 25 114 0.0 0.0 0.00 0.00 0.00 89 1018.5
20260902125157 25 114 0.0 0.0 0.00 0.00 0.00 88 1018.5
20260902124723 25 114 0.0 0.0 0.00 0.00 0.00 89 1018.5
20260902124222 25 114 0.0 0.0 0.00 0.00 0.00 89 1018.5
20260902124155 25 114 0.0 0.0 0.00 0.00 0.00 89 1018.5
20260902123723 24 114 0.0 0.0 0.00 0.00 0.00 90 1018.5
20260902123224 24 114 0.0 0.0 0.00 0.00 0.00 90 1018.5
20260902123157 24 114 0.0 0.0 0.00 0.00 0.00 90 1018.5
20260902122722 24 114 0.0 0.0 0.00 0.00 0.00 90 1018.3
20260902122224 24 114 0.0 0.0 0.00 0.00 0.00 90 1018.3
20260902122157 24 114 0.0 0.0 0.00 0.00 0.00 90 1018.3
20260902121722 24 114 0.0 0.0 0.00 0.00 0.00 90 1018.3
20260902121223 24 114 0.0 0.0 0.00 0.00 0.00 90 1018.2
20260902121156 24 114 0.0 0.0 0.00 0.00 0.00 90 1018.2
20260902120724 24 114 0.0 0.0 0.00 0.00 0.00 89 1018.2
20260902120236 24 114 0.0 0.0 0.00 0.00 0.00 88 1018.2
20260902120222 24 114 0.0 0.0 0.00 0.00 0.00 88 1018.2
20260902120155 24 114 0.0 0.0 0.00 0.00 0.00 88 1018.2
20260902115722 24 114 0.0 0.0 0.00 0.00 0.00 88 1018.1
20260902115224 24 114 0.0 0.0 0.00 0.00 0.00 88 1018.1
20260902115158 24 114 0.0 0.0 0.00 0.00 0.00 88 1018.1
20260902114722 24 114 0.0 0.0 0.00 0.00 0.00 87 1018.1
20260902114223 24 114 0.0 0.0 0.00 0.00 0.00 87 1018.0
20260902114156 24 114 0.0 0.0 0.00 0.00 0.00 87 1018.0
20260902113723 24 114 0.0 0.0 0.00 0.00 0.00 87 1018.0
20260902113223 24 114 0.0 0.0 0.00 0.00 0.00 87 1018.0
20260902113156 24 114 0.0 0.0 0.00 0.00 0.00 87 1018.0
20260902112722 24 114 0.0 0.0 0.00 0.00 0.00 87 1017.8
20260902112222 24 114 0.0 0.0 0.00 0.00 0.00 86 1017.8
20260902112155 24 114 0.0 0.0 0.00 0.00 0.00 86 1017.8
20260902111723 24 113 0.0 0.0 0.00 0.00 0.00 86 1017.8
20260902111222 24 114 0.0 0.0 0.00 0.00 0.00 86 1017.6
20260902111157 24 114 0.0 0.0 0.00 0.00 0.00 86 1017.6
20260902110722 24 113 0.0 0.0 0.00 0.00 0.00 86 1017.6
20260902110247 24 114 0.0 0.0 0.00 0.00 0.00 86 1017.6
20260902110223 24 114 0.0 0.0 0.00 0.00 0.00 86 1017.6
20260902110156 24 114 0.0 0.0 0.00 0.00 0.00 86 1017.6
20260902105722 24 114 0.0 0.0 0.00 0.00 0.00 85 1017.5
20260902105222 24 114 0.0 1.6 0.00 0.00 0.00 85 1017.5
20260902105155 24 114 1.6 3.2 0.00 0.00 0.00 85 1017.5
20260902104723 24 114 0.0 1.6 0.00 0.00 0.00 85 1017.5
20260902104222 24 119 0.0 0.0 0.00 0.00 0.00 84 1017.4
20260902104158 24 119 0.0 0.0 0.00 0.00 0.00 84 1017.4
20260902103722 24 119 0.0 1.6 0.00 0.00 0.00 84 1017.4
20260902103223 24 97 1.6 1.6 0.00 0.00 0.00 84 1017.4
20260902103156 24 107 1.6 3.2 0.00 0.00 0.00 84 1017.4
20260902102722 24 95 1.6 3.2 0.00 0.00 0.00 84 1017.4
20260902102222 24 89 1.6 3.2 0.00 0.00 0.00 84 1017.4
20260902102157 24 99 1.6 1.6 0.00 0.00 0.00 84 1017.4
20260902101723 24 89 3.2 3.2 0.00 0.00 0.00 83 1017.4
20260902101222 24 90 3.2 3.2 0.00 0.00 0.00 83 1017.3
20260902101158 24 90 3.2 3.2 0.00 0.00 0.00 83 1017.3
20260902100722 24 88 1.6 3.2 0.00 0.00 0.00 83 1017.3
20260902100223 24 100 3.2 3.2 0.00 0.00 0.00 83 1017.3
20260902100156 24 109 0.0 3.2 0.00 0.00 0.00 83 1017.3
20260902095722 24 90 3.2 4.8 0.00 0.00 0.00 83 1017.1
20260902095412 24 96 3.2 3.2 0.00 0.00 0.00 82 1017.1
20260902095223 24 97 3.2 3.2 0.00 0.00 0.00 82 1017.1
20260902095158 24 96 3.2 3.2 0.00 0.00 0.00 82 1017.1
20260902094722 24 97 1.6 3.2 0.00 0.00 0.00 82 1017.1
20260902094223 24 78 0.0 1.6 0.00 0.00 0.00 82 1016.9
20260902094156 24 78 1.6 3.2 0.00 0.00 0.00 82 1016.9
20260902093723 25 104 0.0 0.0 0.00 0.00 0.00 82 1016.9
20260902093222 25 89 1.6 3.2 0.00 0.00 0.00 81 1016.9
20260902093157 25 86 3.2 3.2 0.00 0.00 0.00 81 1016.9
20260902092723 25 83 3.2 3.2 0.00 0.00 0.00 81 1016.9
20260902092234 25 110 4.8 4.8 0.00 0.00 0.00 81 1016.9
20260902092223 25 113 3.2 4.8 0.00 0.00 0.00 81 1016.9
20260902092157 25 110 4.8 4.8 0.00 0.00 0.00 81 1016.9
20260902091723 25 120 1.6 3.2 0.00 0.00 0.00 80 1016.9
20260902091222 25 136 0.0 0.0 0.00 0.00 0.00 78 1016.7
20260902091157 25 136 0.0 0.0 0.00 0.00 0.00 78 1016.7
20260902090722 25 136 1.6 1.6 0.00 0.00 0.00 78 1016.7
20260902090223 25 136 0.0 0.0 0.00 0.00 0.00 78 1016.7
20260902090156 25 136 0.0 0.0 0.00 0.00 0.00 78 1016.7
20260902085722 25 136 0.0 0.0 0.00 0.00 0.00 77 1016.5
20260902085222 25 116 1.6 1.6 0.00 0.00 0.00 77 1016.5
20260902085155 25 116 1.6 1.6 0.00 0.00 0.00 77 1016.5
20260902084722 25 97 0.0 0.0 0.00 0.00 0.00 76 1016.5
20260902084223 25 103 1.6 3.2 0.00 0.00 0.00 76 1016.3
20260902084156 25 104 1.6 3.2 0.00 0.00 0.00 76 1016.3
20260902083723 25 90 1.6 3.2 0.00 0.00 0.00 76 1016.3
20260902083222 25 92 1.6 3.2 0.00 0.00 0.00 76 1016.3
20260902083157 25 100 3.2 3.2 0.00 0.00 0.00 76 1016.3
20260902082723 25 100 3.2 3.2 0.00 0.00 0.00 76 1016.3
20260902082223 25 96 1.6 1.6 0.00 0.00 0.00 77 1016.3
20260902082157 25 103 1.6 3.2 0.00 0.00 0.00 77 1016.3
20260902081722 25 97 0.0 1.6 0.00 0.00 0.00 77 1016.3
20260902081223 25 99 3.2 3.2 0.00 0.00 0.00 78 1016.2
20260902081156 25 93 0.0 3.2 0.00 0.00 0.00 78 1016.2
20260902080723 25 107 4.8 4.8 0.00 0.00 0.00 78 1016.2
20260902080222 25 82 1.6 3.2 0.00 0.00 0.00 78 1016.2
20260902080157 25 82 1.6 3.2 0.00 0.00 0.00 78 1016.2
20260902075722 25 88 3.2 3.2 0.00 0.00 0.00 78 1016.2
20260902075223 25 89 1.6 4.8 0.00 0.00 0.00 78 1016.2
20260902075157 25 95 3.2 3.2 0.00 0.00 0.00 78 1016.2
20260902074722 25 138 0.0 0.0 0.00 0.00 0.00 78 1016.2
20260902074223 26 138 0.0 0.0 0.00 0.00 0.00 77 1016.2
20260902074156 26 138 0.0 0.0 0.00 0.00 0.00 77 1016.2
20260902073723 26 138 0.0 1.6 0.00 0.00 0.00 77 1016.2
20260902073222 26 119 0.0 3.2 0.00 0.00 0.00 76 1016.2
20260902073157 26 119 1.6 3.2 0.00 0.00 0.00 76 1016.2
20260902072723 26 124 3.2 3.2 0.00 0.00 0.00 75 1016.1
20260902072223 26 120 3.2 3.2 0.00 0.00 0.00 75 1016.1
20260902072156 26 120 3.2 3.2 0.00 0.00 0.00 75 1016.1
20260902071722 26 112 1.6 3.2 0.00 0.00 0.00 75 1016.1
20260902071258 26 103 0.0 3.2 0.00 0.00 0.00 74 1016.1
20260902071223 26 95 3.2 3.2 0.00 0.00 0.00 75 1016.1
20260902071156 26 103 0.0 3.2 0.00 0.00 0.00 74 1016.1
20260902070723 26 99 3.2 3.2 0.00 0.00 0.00 74 1016.1
20260902070412 26 103 3.2 3.2 0.00 0.00 0.00 74 1016.1
20260902070222 26 93 1.6 3.2 0.00 0.00 0.00 74 1016.1
20260902070157 26 103 3.2 3.2 0.00 0.00 0.00 74 1016.1
20260902065723 26 106 1.6 3.2 0.00 0.00 0.00 74 1016.2
20260902065223 26 99 1.6 3.2 0.00 0.00 0.00 74 1016.2
20260902065156 26 99 3.2 3.2 0.00 0.00 0.00 74 1016.2
20260902064722 26 86 3.2 3.2 0.00 0.00 0.00 73 1016.2
20260902064223 26 103 1.6 3.2 0.00 0.00 0.00 73 1016.2
20260902064157 26 103 3.2 3.2 0.00 0.00 0.00 73 1016.2
20260902063723 26 103 1.6 3.2 0.00 0.00 0.00 73 1016.2
20260902063223 26 96 0.0 1.6 0.00 0.00 0.00 73 1016.2
20260902063156 26 97 3.2 3.2 0.00 0.00 0.00 73 1016.2
20260902062724 26 109 1.6 4.8 0.00 0.00 0.00 72 1016.3
20260902062222 26 93 1.6 4.8 0.00 0.00 0.00 72 1016.3
20260902062157 26 90 4.8 4.8 0.00 0.00 0.00 72 1016.3
20260902061723 26 76 3.2 3.2 0.00 0.00 0.00 72 1016.3
20260902061223 26 62 0.0 4.8 0.00 0.00 0.00 73 1016.4
20260902061159 26 59 4.8 4.8 0.00 0.00 0.00 73 1016.4
20260902060722 26 59 4.8 4.8 0.00 0.00 0.00 74 1016.4
20260902060223 26 48 3.2 4.8 0.00 0.00 0.00 74 1016.4
20260902060156 26 56 4.8 4.8 0.00 0.00 0.00 74 1016.4
20260902055724 26 71 3.2 4.8 0.00 0.00 0.00 74 1016.5
20260902055222 26 61 1.6 3.2 0.00 0.00 0.00 75 1016.5
20260902055157 26 56 3.2 3.2 0.00 0.00 0.00 75 1016.5
20260902054723 26 55 3.2 3.2 0.00 0.00 0.00 75 1016.5
20260902054224 26 68 1.6 1.6 0.00 0.00 0.00 75 1016.6
20260902054156 26 68 0.0 4.8 0.00 0.00 0.00 75 1016.6
20260902053722 26 66 1.6 3.2 0.00 0.00 0.00 75 1016.6
20260902053223 26 69 3.2 3.2 0.00 0.00 0.00 75 1016.6
20260902053155 26 65 1.6 3.2 0.00 0.00 0.00 75 1016.6
20260902052724 26 68 1.6 1.6 0.00 0.00 0.00 75 1016.7
20260902052222 26 72 1.6 1.6 0.00 0.00 0.00 74 1016.7
20260902052158 26 72 1.6 1.6 0.00 0.00 0.00 74 1016.7
20260902051723 26 64 1.6 3.2 0.00 0.00 0.00 74 1016.7
20260902051224 26 64 0.0 1.6 0.00 0.00 0.00 74 1016.7
20260902051156 26 64 1.6 1.6 0.00 0.00 0.00 74 1016.7
20260902050723 26 64 0.0 1.6 0.00 0.00 0.00 74 1016.7
20260902050222 26 64 1.6 3.2 0.00 0.00 0.00 74 1016.7
20260902050156 26 64 3.2 3.2 0.00 0.00 0.00 74 1016.7
20260902045723 26 64 3.2 3.2 0.00 0.00 0.00 74 1016.7
20260902045227 26 61 3.2 3.2 0.00 0.00 0.00 75 1016.7
20260902045224 26 61 0.0 1.6 0.00 0.00 0.00 75 1016.7
20260902045155 26 61 3.2 3.2 0.00 0.00 0.00 75 1016.7
20260902044722 26 64 0.0 4.8 0.00 0.00 0.00 75 1016.7
20260902044223 26 64 1.6 3.2 0.00 0.00 0.00 75 1016.7
20260902044157 26 58 3.2 3.2 0.00 0.00 0.00 75 1016.7
20260902043724 26 72 3.2 3.2 0.00 0.00 0.00 75 1016.7
20260902043222 26 83 1.6 3.2 0.00 0.00 0.00 76 1016.7
20260902043158 26 83 1.6 1.6 0.00 0.00 0.00 76 1016.7
20260902042723 26 97 0.0 0.0 0.00 0.00 0.00 76 1016.7
20260902042224 26 97 0.0 0.0 0.00 0.00 0.00 76 1016.7
20260902042155 26 97 0.0 0.0 0.00 0.00 0.00 76 1016.7
20260902041722 26 97 0.0 0.0 0.00 0.00 0.00 76 1016.7
20260902041223 26 97 0.0 0.0 0.00 0.00 0.00 75 1016.9
20260902041156 26 97 0.0 0.0 0.00 0.00 0.00 75 1016.9
20260902040723 27 97 0.0 0.0 0.00 0.00 0.00 74 1016.9
20260902040223 27 97 0.0 0.0 0.00 0.00 0.00 74 1016.9
20260902040156 27 97 0.0 0.0 0.00 0.00 0.00 74 1016.9
20260902035722 27 97 1.6 1.6 0.00 0.00 0.00 73 1016.9
20260902035223 27 97 0.0 0.0 0.00 0.00 0.00 73 1016.9
20260902035156 27 97 0.0 0.0 0.00 0.00 0.00 73 1016.9
20260902034723 27 97 0.0 0.0 0.00 0.00 0.00 73 1016.9
20260902034222 27 97 0.0 0.0 0.00 0.00 0.00 72 1016.8
20260902034157 27 97 0.0 0.0 0.00 0.00 0.00 72 1016.8
20260902033723 27 97 0.0 0.0 0.00 0.00 0.00 72 1016.8
20260902033223 27 97 0.0 0.0 0.00 0.00 0.00 71 1016.8
20260902033156 27 100 0.0 0.0 0.00 0.00 0.00 71 1016.8
20260902032722 27 93 0.0 1.6 0.00 0.00 0.00 71 1016.7
20260902032222 27 97 0.0 0.0 0.00 0.00 0.00 70 1016.7
20260902032155 27 97 0.0 0.0 0.00 0.00 0.00 70 1016.7
20260902031723 28 93 0.0 0.0 0.00 0.00 0.00 70 1016.7
20260902031223 28 82 3.2 3.2 0.00 0.00 0.00 70 1016.9
20260902031156 28 69 1.6 1.6 0.00 0.00 0.00 70 1016.9
20260902030723 28 73 0.0 0.0 0.00 0.00 0.00 69 1016.9
20260902030222 28 73 3.2 4.8 0.00 0.00 0.00 70 1016.9
20260902030157 28 79 1.6 4.8 0.00 0.00 0.00 70 1016.9
20260902025723 28 109 0.0 4.8 0.00 0.00 0.00 69 1016.8
20260902025223 28 89 1.6 4.8 0.00 0.00 0.00 69 1016.8
20260902025156 28 95 4.8 4.8 0.00 0.00 0.00 70 1016.8
20260902024724 28 80 3.2 3.2 0.00 0.00 0.00 70 1016.8
20260902024222 28 65 3.2 3.2 0.00 0.00 0.00 70 1016.8
20260902024155 28 66 1.6 3.2 0.00 0.00 0.00 70 1016.8
20260902023723 28 72 1.6 3.2 0.00 0.00 0.00 70 1016.8
20260902023224 28 75 0.0 1.6 0.00 0.00 0.00 69 1016.8
20260902023156 28 75 3.2 3.2 0.00 0.00 0.00 69 1016.8
20260902022722 28 73 1.6 1.6 0.00 0.00 0.00 69 1016.7
20260902022223 28 54 3.2 3.2 0.00 0.00 0.00 69 1016.7
20260902022155 28 68 1.6 3.2 0.00 0.00 0.00 69 1016.7
20260902021724 28 72 3.2 3.2 0.00 0.00 0.00 69 1016.7
20260902021222 28 51 1.6 3.2 0.00 0.00 0.00 69 1016.8
20260902021155 28 28 1.6 3.2 0.00 0.00 0.00 69 1016.8
20260902020723 28 68 4.8 4.8 0.00 0.00 0.00 69 1016.8
20260902020234 28 71 1.6 3.2 0.00 0.00 0.00 69 1016.8
20260902020222 28 71 0.0 1.6 0.00 0.00 0.00 69 1016.8
20260902020155 28 71 1.6 3.2 0.00 0.00 0.00 69 1016.8
20260902015723 28 56 0.0 1.6 0.00 0.00 0.00 69 1016.6
20260902015224 28 27 1.6 3.2 0.00 0.00 0.00 69 1016.6
20260902015156 28 8 1.6 4.8 0.00 0.00 0.00 69 1016.6
20260902014722 28 20 1.6 3.2 0.00 0.00 0.00 69 1016.6
20260902014223 28 66 0.0 3.2 0.00 0.00 0.00 69 1016.5
20260902014156 28 73 3.2 3.2 0.00 0.00 0.00 69 1016.5
20260902013724 28 49 3.2 3.2 0.00 0.00 0.00 70 1016.5
20260902013223 28 40 0.0 1.6 0.00 0.00 0.00 70 1016.5
20260902013156 28 41 0.0 3.2 0.00 0.00 0.00 70 1016.5
20260902012722 28 20 3.2 3.2 0.00 0.00 0.00 70 1016.3
20260902012223 28 40 1.6 1.6 0.00 0.00 0.00 71 1016.3
20260902012155 28 40 0.0 1.6 0.00 0.00 0.00 71 1016.3
20260902011723 28 66 3.2 3.2 0.00 0.00 0.00 71 1016.3
20260902011222 28 8 3.2 3.2 0.00 0.00 0.00 71 1016.3
20260902011157 28 10 1.6 3.2 0.00 0.00 0.00 71 1016.3
20260902010723 28 3 3.2 4.8 0.00 0.00 0.00 71 1016.3
20260902010223 28 20 0.0 1.6 0.00 0.00 0.00 71 1016.3
20260902010156 28 21 0.0 3.2 0.00 0.00 0.00 71 1016.3
20260902005722 28 4 3.2 3.2 0.00 0.00 0.00 71 1016.2
20260902005222 28 30 3.2 3.2 0.00 0.00 0.00 71 1016.2
20260902005155 28 30 3.2 3.2 0.00 0.00 0.00 71 1016.2
20260902004723 28 31 1.6 3.2 0.00 0.00 0.00 71 1016.2
20260902004224 28 51 0.0 1.6 0.00 0.00 0.00 71 1016.2
20260902004157 28 11 1.6 3.2 0.00 0.00 0.00 71 1016.2
20260902003722 28 28 1.6 4.8 0.00 0.00 0.00 71 1016.2
20260902003223 28 61 4.8 4.8 0.00 0.00 0.00 71 1016.2
20260902003156 28 10 1.6 3.2 0.00 0.00 0.00 71 1016.2
20260902002723 28 7 0.0 1.6 0.00 0.00 0.00 71 1016.2
20260902002223 28 24 3.2 3.2 0.00 0.00 0.00 71 1016.2
20260902002156 28 25 1.6 4.8 0.00 0.00 0.00 71 1016.2
20260902001724 28 25 1.6 3.2 0.00 0.00 0.00 71 1016.2
20260902001222 28 11 3.2 3.2 0.00 0.00 0.00 70 1016.4
20260902001155 28 11 1.6 3.2 0.00 0.00 0.00 70 1016.4
20260902000723 29 11 3.2 4.8 0.00 0.00 0.00 70 1016.4
20260902000222 29 7 1.6 3.2 0.00 0.00 0.00 70 1016.4
20260902000155 29 17 1.6 3.2 0.00 0.00 0.00 70 1016.4
20260901235723 29 6 3.2 3.2 0.00 0.00 0.00 69 1016.4
20260901235223 30 6 1.6 1.6 0.00 0.00 0.00 69 1016.4
20260901235156 30 6 1.6 1.6 0.00 0.00 0.00 69 1016.4
20260901234723 30 6 3.2 3.2 0.00 0.00 0.00 68 1016.4
20260901234223 30 6 3.2 3.2 0.00 0.00 0.00 68 1016.4
20260901234156 30 6 1.6 3.2 0.00 0.00 0.00 68 1016.4
20260901233723 30 6 1.6 3.2 0.00 0.00 0.00 67 1016.4
20260901233222 30 61 0.0 1.6 0.00 0.00 0.00 67 1016.4
20260901233157 30 61 0.0 1.6 0.00 0.00 0.00 67 1016.4
20260901232723 30 61 0.0 0.0 0.00 0.00 0.00 67 1016.5
20260901232223 30 66 1.6 3.2 0.00 0.00 0.00 66 1016.5
20260901232156 30 55 1.6 1.6 0.00 0.00 0.00 66 1016.5
20260901231723 30 11 0.0 0.0 0.00 0.00 0.00 66 1016.5
20260901231222 30 11 0.0 1.6 0.00 0.00 0.00 65 1016.4
20260901231158 30 11 0.0 1.6 0.00 0.00 0.00 65 1016.4
20260901230722 30 11 0.0 1.6 0.00 0.00 0.00 65 1016.4
20260901230223 31 11 0.0 3.2 0.00 0.00 0.00 65 1016.4
20260901230156 31 11 1.6 4.8 0.00 0.00 0.00 65 1016.4
20260901225723 31 13 3.2 3.2 0.00 0.00 0.00 65 1016.2
20260901225223 31 24 0.0 3.2 0.00 0.00 0.00 65 1016.2
20260901225156 31 32 1.6 1.6 0.00 0.00 0.00 65 1016.2
20260901224722 31 18 0.0 1.6 0.00 0.00 0.00 64 1016.2
20260901224222 31 18 1.6 1.6 0.00 0.00 0.00 65 1016.3
20260901224157 31 47 0.0 3.2 0.00 0.00 0.00 65 1016.3
20260901223722 31 357 0.0 1.6 0.00 0.00 0.00 64 1016.3
20260901223223 31 51 0.0 3.2 0.00 0.00 0.00 64 1016.3
20260901223156 31 49 3.2 4.8 0.00 0.00 0.00 62 1016.3
20260901222722 31 76 0.0 3.2 0.00 0.00 0.00 64 1016.2
20260901222223 31 71 3.2 4.8 0.00 0.00 0.00 63 1016.2
20260901222156 31 65 4.8 6.4 0.00 0.00 0.00 63 1016.2
20260901221724 31 72 3.2 3.2 0.00 0.00 0.00 61 1016.2
20260901221222 31 120 3.2 4.8 0.00 0.00 0.00 61 1016.3
20260901221157 31 85 3.2 4.8 0.00 0.00 0.00 61 1016.3
20260901220722 31 109 3.2 4.8 0.00 0.00 0.00 60 1016.3
20260901220223 32 58 3.2 3.2 0.00 0.00 0.00 62 1016.3
20260901220155 32 52 0.0 0.0 0.00 0.00 0.00 61 1016.3
20260901215723 32 58 4.8 4.8 0.00 0.00 0.00 60 1016.3